Weather History for KHUL - December, 2012

Change the Weather History Date:

Sunday, December 9, 2012

  Actual Average Record
Temperature  
Mean Temperature 31 °F 22 °F  
Max Temperature 40 °F 31 °F 50 °F (1974)
Min Temperature 22 °F 14 °F -16 °F (1970)
Degree Days  
Heating Degree Days 34 43  
Month to date heating degree days 324 369  
Since 1 July heating degree days 2193 2477  
Cooling Degree Days 0 0  
Month to date cooling degree days 0 0  
Year to date cooling degree days 277 191  
Moisture  
Dew Point 27 °F    
Average Humidity 74    
Maximum Humidity 96    
Minimum Humidity 52    
Precipitation  
Precipitation 0.00 in 0.12 in 1.03 in (1969)
Month to date precipitation 0.95 1.08  
Year to date precipitation 43.66 37.77  
Sea Level Pressure  
Sea Level Pressure 30.05 in    
Wind  
Wind Speed 6 mph (West)    
Max Wind Speed 17 mph    
Max Gust Speed 23 mph    
Visibility 8 miles    
Events      
T = Trace of Precipitation, MM = Missing Value Source: NWS Daily Summary

Daily Weather History Graph

Daily Weather History Graph

Search for Another Location

Airport or City:

Trip Planner

Search our weather history database for the weather conditions in past years. The results will help you decide how hot, cold, wet, or windy it might be!

Date:

Astronomy

Dec. 09, 2012 Rise Set
Actual Time 7:02 AM EST 3:45 PM EST
Civil Twilight 6:27 AM EST 4:19 PM EST
Nautical Twilight 5:49 AM EST 4:57 PM EST
Astronomical Twilight 5:13 AM EST 5:34 PM EST
Moon 2:20 AM EST (12/9) 12:58 PM EST (12/9)
Length of Visible Light 9h 52m
Length of Day
8h 43m
Waning Crescent, 19% of the Moon is Illuminated
Dec 9
Waning Crescent
Dec 13
New
Dec 20
First Quarter
Dec 28
Full
Jan 4
Last Quarter

Hourly Weather History & Observations

Time (EST) Temp. Windchill Dew Point Humidity Pressure Visibility Wind Dir Wind Speed Gust Speed Precip Events Conditions
12:24 AM 35.6 °F 32.8 °F 33.8 °F 93% 29.79 in 3.0 mi SSW 3.5 mph - N/A   Overcast
12:39 AM 35.6 °F 32.8 °F 33.8 °F 93% 29.79 in 2.5 mi SW 3.5 mph - N/A   Overcast
12:53 AM 35.1 °F 32.2 °F 34.0 °F 96% 29.81 in 1.5 mi SSW 3.5 mph - N/A   Overcast
1:04 AM 35.6 °F 30.7 °F 33.8 °F 93% 29.79 in 1.0 mi South 5.8 mph - N/A   Overcast
1:37 AM 35.6 °F 29.9 °F 33.8 °F 93% 29.80 in 2.0 mi SW 6.9 mph - N/A   Overcast
1:49 AM 35.6 °F 29.2 °F 33.8 °F 93% 29.81 in 4.0 mi SW 8.1 mph - N/A   Overcast
1:53 AM 36.0 °F 31.1 °F 34.0 °F 93% 29.83 in 4.0 mi SW 5.8 mph - N/A   Overcast
2:53 AM 35.1 °F 29.3 °F 34.0 °F 96% 29.86 in 7.0 mi SW 6.9 mph - N/A   Overcast
3:31 AM 33.8 °F 29.6 °F 32.0 °F 93% 29.83 in 9.0 mi South 4.6 mph - N/A   Partly Cloudy
3:53 AM 34.0 °F 31.0 °F 32.0 °F 92% 29.87 in 8.0 mi SSW 3.5 mph - N/A   Mostly Cloudy
4:23 AM 35.6 °F - 33.8 °F 93% 29.87 in 9.0 mi Calm Calm - N/A   Overcast
4:33 AM 33.8 °F 30.8 °F 32.0 °F 93% 29.88 in 10.0 mi West 3.5 mph - N/A   Mostly Cloudy
4:53 AM 34.0 °F 27.2 °F 32.0 °F 92% 29.91 in 10.0 mi WNW 8.1 mph - N/A   Mostly Cloudy
5:53 AM 37.0 °F 30.4 °F 32.0 °F 82% 29.95 in 10.0 mi WNW 9.2 mph 18.4 mph N/A   Overcast
6:53 AM 36.0 °F 31.1 °F 30.0 °F 79% 30.00 in 10.0 mi Variable 5.8 mph - N/A   Overcast
7:53 AM 36.0 °F 31.1 °F 28.9 °F 76% 30.04 in 10.0 mi Variable 5.8 mph - N/A   Overcast
8:53 AM 36.0 °F 30.3 °F 28.9 °F 76% 30.10 in 10.0 mi West 6.9 mph - N/A   Overcast
9:00 AM 35.6 °F 30.7 °F 28.4 °F 75% 30.08 in 10.0 mi West 5.8 mph - N/A   Overcast
9:28 AM 35.6 °F 30.7 °F 28.4 °F 75% 30.10 in 10.0 mi West 5.8 mph - N/A   Overcast
9:53 AM 37.0 °F 29.8 °F 28.0 °F 70% 30.13 in 10.0 mi WNW 10.4 mph - N/A   Overcast
10:36 AM 37.4 °F 30.8 °F 28.4 °F 70% 30.11 in 10.0 mi WNW 9.2 mph - N/A   Mostly Cloudy
10:53 AM 37.0 °F 31.6 °F 26.1 °F 65% 30.14 in 10.0 mi NW 6.9 mph - N/A   Mostly Cloudy
11:07 AM 37.4 °F 30.3 °F 24.8 °F 60% 30.12 in 10.0 mi NW 10.4 mph 19.6 mph N/A   Mostly Cloudy
11:53 AM 37.9 °F 30.9 °F 25.0 °F 60% 30.15 in 10.0 mi WNW 10.4 mph - N/A   Mostly Cloudy
12:53 PM 37.9 °F 30.9 °F 23.0 °F 55% 30.16 in 10.0 mi West 10.4 mph - N/A   Mostly Cloudy
1:53 PM 37.0 °F 29.3 °F 21.9 °F 54% 30.18 in 10.0 mi West 11.5 mph - N/A   Partly Cloudy
2:53 PM 36.0 °F 29.0 °F 21.0 °F 55% 30.19 in 10.0 mi NW 9.2 mph - N/A   Partly Cloudy
3:53 PM 33.1 °F 27.7 °F 21.0 °F 61% 30.23 in 10.0 mi NW 5.8 mph - N/A   Clear
4:53 PM 30.9 °F 25.2 °F 19.9 °F 64% 30.27 in 10.0 mi NNW 5.8 mph - N/A   Clear
5:53 PM 28.9 °F 25.2 °F 19.9 °F 69% 30.29 in 10.0 mi North 3.5 mph - N/A   Clear
6:53 PM 28.0 °F 22.8 °F 19.0 °F 69% 30.30 in 10.0 mi NNW 4.6 mph - N/A   Clear
7:53 PM 26.1 °F - 18.0 °F 71% 30.32 in 10.0 mi Calm Calm - N/A   Clear
8:53 PM 25.0 °F - 17.1 °F 72% 30.33 in 10.0 mi Calm Calm - N/A   Clear
9:53 PM 24.1 °F 19.7 °F 17.1 °F 75% 30.32 in 10.0 mi North 3.5 mph - N/A   Clear
10:53 PM 24.1 °F 18.2 °F 16.0 °F 71% 30.32 in 10.0 mi North 4.6 mph - N/A   Clear
11:53 PM 21.9 °F 12.5 °F 10.0 °F 60% 30.30 in 10.0 mi North 8.1 mph - N/A   Clear